Home   Weather   Jamestown   Past weeks

Flag for Saint Helena Past Weather in Jamestown, Saint Helena — Yesterday and Last 2 Weeks

Now
62 °F

Low clouds.


Feels Like: 62 °F
Forecast: 69 / 70 °F
Wind: 17 mph from Southeast

Location: Saint Helena Island

Current Time: Aug 20, 2017 at 11:54:23 am

Latest Report: Aug 20, 2017 at 11:00 am


Visibility: 6 mi

Pressure: 30.14 "Hg

Humidity: 89%

Dew Point: 58 °F

Location of JamestownLocation

Past Weather in Jamestown — Graph

°F

Jamestown Temperature Yesterday

Maximum temperature yesterday: 65 °F (at 2:00 pm)
Minimum temperature yesterday: 60 °F (at 3:00 am)
Average temperature yesterday: 62 °F

High & Low Weather Summary for the Past Weeks

 TemperatureHumidityPressure
High67 °F (Aug 8, 1:00 pm)93% (Aug 18, 8:00 am)30.20 "Hg (Aug 18, 8:00 am)
Low57 °F (Aug 20, 7:00 am)58% (Aug 6, 1:00 pm)30.01 "Hg (Aug 18, 3:00 pm)
Average63 °F77%30.12 "Hg
* Reported Aug 5 10:00 am — Aug 20 10:00 am, Jamestown. Weather by CustomWeather, © 2017

Note: Actual official high and low records may vary slightly from our data, if they occured in-between our weather recording intervals... More about our weather records

Advertising

Jamestown Weather History for the Previous 24 Hours

Scroll right to see more
 ConditionsComfort  
Time TempWeatherWind HumidityBarometerVisibility
10:00 am
Sun, Aug 20
62 °FCool.17 mph84%30.13 "HgN/A
9:00 am60 °FCool.8 mph90%30.13 "HgN/A
8:00 am60 °FCool.10 mph87%30.12 "HgN/A
7:00 am57 °FCool.13 mph92%30.11 "HgN/A
5:00 am58 °FCool.12 mph91%30.08 "HgN/A
3:00 am59 °FCool.10 mph90%30.06 "HgN/A
2:00 am58 °FCool.N/A82%30.09 "HgN/A
12:00 am61 °FCool.8 mph80%30.11 "HgN/A
11:00 pm
Sat, Aug 19
61 °FCool.10 mph73%30.12 "HgN/A
10:00 pm61 °FCool.10 mph79%30.12 "HgN/A
9:00 pm61 °FCool.10 mph77%30.10 "HgN/A
8:00 pm61 °FCool.10 mph74%30.09 "HgN/A
7:00 pm61 °FCool.8 mph72%30.09 "HgN/A
6:00 pm62 °FCool.8 mph72%30.07 "HgN/A
5:00 pm63 °FMild.10 mph71%30.06 "HgN/A
4:00 pm64 °FMild.12 mph70%30.04 "HgN/A
3:00 pm65 °FMild.12 mph58%30.03 "HgN/A
2:00 pm65 °FMild.10 mph61%30.05 "HgN/A
1:00 pm65 °FMild.13 mph62%30.06 "HgN/A
12:00 pm64 °FOvercast.13 mph71%30.09 "Hg28 mi
11:00 am64 °FOvercast.14 mph60%30.11 "Hg31 mi
Weather by CustomWeather, © 2017

See weather overviewHow to use our weather pages